Location: Goheenville
(40.9070°N, 79.3720°W)
Time: 08:59:13
(UTC-04:00)

Cosmos 1727 Rocket - Visible Passes

Search period start: 26 May 2017 00:00
Search period end: 05 June 2017 00:00
Orbit: 961 x 996 km, 82.9° (Epoch: 25 May)

Date Brightness Start Highest point End Pass type
(mag) Time Alt. Az. Time Alt. Az. Time Alt. Az.
26 May 4.0 00:51:23 63° ESE 00:51:47 64° E 00:57:57 10° NNE visible
26 May 5.7 02:36:06 17° W 02:37:46 19° WNW 02:42:07 10° NNW visible
26 May 5.7 23:32:45 16° E 23:33:26 17° E 23:37:08 10° NE visible
27 May 3.9 01:17:28 65° WSW 01:18:06 71° W 01:24:22 10° N visible
27 May 4.9 23:58:49 31° E 23:59:22 31° E 00:04:44 10° NNE visible
28 May 4.8 01:43:32 36° W 01:44:38 38° WNW 01:50:26 10° N visible
29 May 4.1 00:24:52 55° ESE 00:25:29 58° E 00:31:36 10° NNE visible
29 May 5.6 02:09:34 19° W 02:11:21 21° WNW 02:16:01 10° NNW visible
29 May 5.8 23:06:11 14° E 23:07:12 15° E 23:10:27 10° NE visible
30 May 3.9 00:50:54 66° SW 00:51:46 78° W 00:58:04 10° N visible
30 May 6.2 02:36:29 10° W 02:38:19 11° WNW 02:40:10 10° NW visible
30 May 5.0 23:32:12 27° E 23:33:06 28° E 23:38:17 10° NNE visible
31 May 4.7 01:16:55 38° WSW 01:18:16 43° WNW 01:24:13 10° N visible
31 May 4.2 23:58:13 47° ESE 23:59:11 52° E 00:05:14 10° NNE visible
01 Jun 5.5 01:42:56 20° W 01:44:58 24° WNW 01:49:54 10° NNW visible
01 Jun 5.8 22:39:30 12° E 22:40:59 13° E 22:43:41 10° NE visible
02 Jun 3.9 00:24:12 60° SSW 00:25:28 86° W 00:31:46 10° N visible
02 Jun 6.2 02:09:14 10° W 02:11:53 13° WNW 02:14:33 10° NW visible
02 Jun 5.1 23:05:28 23° ESE 23:06:51 25° E 23:11:49 10° NNE visible
03 Jun 4.6 00:50:11 38° WSW 00:51:55 47° WNW 00:57:58 10° N visible
03 Jun 4.4 23:31:26 40° SE 23:32:54 47° E 23:38:51 10° NNE visible
04 Jun 5.5 01:16:09 21° WSW 01:18:34 26° WNW 01:23:46 10° NNW visible
04 Jun 5.9 22:12:49 10° E 22:14:46 12° ENE 22:16:43 10° ENE visible
